KC8PTQ Weather Reports


time (UTC)temp
C
wind
direction
speed
KPH
gust
KPH
rain 1hr
cm
rain 24hr
cm
rain mn
cm
humidity
%
barometer
mb
20260508115619 8 131 3.2 4.8 0.00 0.08 0.08 87 1013.7
20260508115116 7 286 1.6 1.6 0.00 0.08 0.08 89 1013.7
20260508114613 7 275 0.0 0.0 0.00 0.08 0.08 92 1014.0
20260508114108 7 323 0.0 0.0 0.00 0.08 0.08 95 1013.9
20260508113606 7 325 0.0 0.0 0.00 0.08 0.08 96 1014.0
20260508113105 6 315 0.0 0.0 0.00 0.08 0.08 96 1013.8
20260508112600 6 326 0.0 0.0 0.00 0.08 0.08 97 1013.8
20260508112057 6 326 0.0 0.0 0.00 0.08 0.08 97 1013.6
20260508111554 6 326 0.0 0.0 0.00 0.08 0.08 97 1014.1
20260508111051 6 326 0.0 0.0 0.00 0.08 0.08 97 1013.8
20260508110549 6 326 0.0 0.0 0.00 0.08 0.08 97 1013.7
20260508110044 6 326 0.0 0.0 0.00 0.08 0.08 97 1013.7
20260508105539 6 326 0.0 1.6 0.00 0.08 0.08 97 1013.6
20260508105037 6 326 0.0 0.0 0.00 0.08 0.08 97 1013.9
20260508104535 6 325 0.0 0.0 0.00 0.08 0.08 97 1013.7
20260508104031 6 325 0.0 0.0 0.00 0.08 0.08 97 1013.7
20260508103528 6 325 0.0 0.0 0.00 0.08 0.08 97 1013.9
20260508103026 6 325 0.0 0.0 0.00 0.08 0.08 96 1013.8
20260508102523 6 325 0.0 0.0 0.00 0.08 0.08 96 1014.0
20260508102021 6 326 0.0 0.0 0.00 0.08 0.08 96 1013.9
20260508101518 6 326 0.0 0.0 0.18 0.08 0.08 95 1013.8
20260508101015 6 2 0.0 0.0 0.18 0.08 0.08 95 1013.7
20260508100513 6 318 1.6 1.6 0.00 0.05 0.05 95 1013.6
20260508100010 6 294 1.6 1.6 0.00 0.05 0.05 95 1013.7
20260508095507 6 299 0.0 0.0 0.00 0.05 0.05 95 1013.6
20260508095003 6 299 0.0 0.0 0.00 0.05 0.05 94 1013.3
20260508094501 6 299 0.0 0.0 0.00 0.05 0.05 94 1013.5
20260508093957 6 299 0.0 0.0 0.00 0.05 0.05 93 1013.4
20260508093454 6 299 0.0 0.0 0.00 0.05 0.05 93 1013.6
20260508092952 6 299 0.0 0.0 0.00 0.05 0.05 92 1013.5
20260508092449 6 299 0.0 0.0 0.00 0.05 0.05 92 1013.6
20260508091948 7 298 0.0 0.0 0.00 0.05 0.05 92 1013.3
20260508091444 7 273 0.0 0.0 0.00 0.05 0.05 91 1013.7
20260508090942 7 273 0.0 0.0 0.00 0.05 0.05 90 1013.8
20260508090440 7 273 0.0 0.0 0.00 0.05 0.05 90 1014.0
20260508085935 7 271 0.0 0.0 0.00 0.05 0.05 88 1013.8
20260508085427 7 316 0.0 0.0 0.00 0.05 0.05 89 1013.9
20260508084923 7 296 0.0 0.0 0.00 0.05 0.05 88 1013.9
20260508084419 7 290 0.0 1.6 0.13 0.05 0.05 88 1014.1
20260508083918 8 316 0.0 0.0 0.13 0.05 0.05 87 1014.1
20260508083415 8 270 1.6 3.2 0.00 0.03 0.03 82 1014.1
20260508082914 7 294 1.6 3.2 0.00 0.03 0.03 84 1013.8
20260508082412 7 299 0.0 0.0 0.00 0.03 0.03 85 1013.9
20260508081910 7 10 0.0 0.0 0.00 0.03 0.03 84 1013.5
20260508081406 7 289 1.6 1.6 0.00 0.03 0.03 84 1013.4
20260508080902 7 298 1.6 1.6 0.00 0.03 0.03 86 1013.9
20260508080401 7 290 0.0 0.0 0.00 0.03 0.03 86 1013.8
20260508075857 7 289 1.6 1.6 0.00 0.03 0.03 85 1013.8
20260508075354 7 298 0.0 0.0 0.00 0.03 0.03 87 1013.8
20260508074852 7 321 0.0 0.0 0.00 0.03 0.03 88 1013.7
20260508074348 7 241 0.0 1.6 0.00 0.03 0.03 86 1013.8
20260508073846 7 274 0.0 0.0 0.00 0.03 0.03 87 1013.7
20260508073344 7 274 0.0 0.0 0.00 0.03 0.03 87 1013.7
20260508072840 7 274 0.0 0.0 0.00 0.03 0.03 87 1013.9
20260508072336 7 289 0.0 1.6 0.00 0.03 0.03 86 1014.1
20260508071834 7 289 0.0 0.0 0.00 0.03 0.03 85 1013.8
20260508071332 7 283 0.0 1.6 0.00 0.03 0.03 84 1014.0
20260508070830 7 289 0.0 0.0 0.00 0.03 0.03 86 1014.2
20260508070328 7 264 0.0 0.0 0.00 0.03 0.03 86 1014.1
20260508065825 7 299 0.0 0.0 0.00 0.03 0.03 86 1014.4
20260508065323 7 290 0.0 0.0 0.00 0.03 0.03 86 1014.3
20260508064820 8 289 0.0 0.0 0.00 0.03 0.03 85 1014.2
20260508064318 8 284 1.6 1.6 0.00 0.03 0.03 83 1014.1
20260508063815 8 316 0.0 0.0 0.18 0.03 0.03 84 1014.4
20260508063313 8 288 3.2 4.8 0.18 0.03 0.03 85 1014.4
20260508062810 8 272 0.0 0.0 0.00 0.00 0.00 83 1014.6
20260508062308 8 315 0.0 0.0 0.00 0.00 0.00 84 1014.5
20260508061804 8 299 0.0 0.0 0.00 0.00 0.00 82 1014.3
20260508061301 8 301 1.6 3.2 0.00 0.00 0.00 81 1014.3
20260508060758 8 267 4.8 9.7 0.00 0.00 0.00 78 1014.6
20260508060256 8 323 0.0 0.0 0.00 0.00 0.00 81 1014.4
20260508055751 8 343 3.2 3.2 0.00 0.00 0.00 81 1014.6
20260508055248 7 271 3.2 4.8 0.00 0.00 0.00 84 1014.4
20260508054744 7 297 0.0 0.0 0.00 0.00 0.00 86 1014.5
20260508054243 7 328 0.0 0.0 0.00 0.00 0.00 88 1014.4
20260508053740 7 329 0.0 0.0 0.00 0.00 0.00 89 1014.4
20260508053237 7 329 0.0 0.0 0.00 0.00 0.00 89 1014.4
20260508052734 7 328 0.0 0.0 0.00 0.00 0.00 88 1014.7
20260508052231 7 328 0.0 0.0 0.00 0.00 0.00 87 1014.7
20260508051727 7 328 0.0 0.0 0.00 0.00 0.00 86 1014.6
20260508051223 7 328 0.0 0.0 0.00 0.00 0.00 84 1014.6
20260508050719 7 328 0.0 0.0 0.00 0.00 0.00 84 1014.7
20260508050218 8 329 0.0 0.0 0.00 0.00 0.00 80 1014.7
20260508045718 7 328 0.0 0.0 0.00 0.00 0.00 79 1014.8
20260508045216 7 328 0.0 0.0 0.00 0.00 0.00 77 1014.7
20260508044713 8 328 0.0 0.0 0.00 0.00 0.00 78 1014.6
20260508044210 8 329 0.0 0.0 0.00 0.00 0.00 79 1014.4
20260508043705 7 328 0.0 0.0 0.00 0.00 0.00 78 1014.5
20260508043204 8 328 0.0 0.0 0.00 0.00 0.00 79 1014.4
20260508042700 8 328 0.0 0.0 0.00 0.00 0.00 79 1014.5
20260508042157 7 328 0.0 0.0 0.00 0.00 0.00 74 1014.3
20260508041653 7 329 0.0 0.0 0.00 0.00 0.00 75 1014.3
20260508041150 8 329 0.0 0.0 0.00 0.00 0.00 80 1014.4
20260508040647 8 328 0.0 0.0 0.00 0.00 0.00 78 1014.5
20260508040144 8 328 0.0 0.0 0.00 0.00 0.00 75 1014.7
20260508035642 8 328 0.0 0.0 0.00 0.00 0.00 71 1015.0
20260508035139 8 328 0.0 0.0 0.00 0.00 0.00 71 1014.7
20260508034636 8 328 0.0 0.0 0.00 0.00 0.00 74 1014.9
20260508034133 8 328 0.0 0.0 0.00 0.00 0.00 71 1014.9
20260508033630 8 328 0.0 0.0 0.00 0.00 0.00 70 1014.9
20260508033128 9 328 0.0 0.0 0.00 0.00 0.00 68 1014.9
20260508032624 8 328 0.0 0.0 0.00 0.00 0.00 67 1014.9
20260508032122 9 328 0.0 0.0 0.00 0.00 0.00 68 1014.7
20260508031619 9 328 0.0 0.0 0.00 0.00 0.00 67 1014.9
20260508031115 9 328 0.0 0.0 0.00 0.00 0.00 67 1014.9
20260508030611 9 293 0.0 1.6 0.00 0.00 0.00 65 1015.1
20260508030110 10 293 1.6 1.6 0.00 0.00 0.00 63 1015.1
20260508025605 10 297 1.6 1.6 0.00 0.00 0.00 63 1014.9
20260508025103 10 328 0.0 0.0 0.00 0.00 0.00 61 1015.0
20260508024558 10 297 0.0 1.6 0.00 0.00 0.00 62 1015.2
20260508024056 10 293 0.0 0.0 0.00 0.00 0.00 62 1015.0
20260508023552 10 293 0.0 1.6 0.00 0.00 0.00 62 1015.0
20260508023050 10 309 1.6 1.6 0.00 0.00 0.00 61 1015.0
20260508022545 10 3 0.0 0.0 0.00 0.00 0.00 58 1015.0
20260508022043 9 265 3.2 3.2 0.00 0.00 0.00 61 1014.9
20260508021538 9 321 0.0 0.0 0.00 0.00 0.00 62 1014.9
20260508021034 8 255 0.0 0.0 0.00 0.00 0.00 61 1014.7
20260508020532 8 266 0.0 0.0 0.00 0.00 0.00 69 1014.8
20260508020030 8 267 0.0 0.0 0.00 0.00 0.00 71 1014.7
20260508015527 8 267 0.0 0.0 0.00 0.00 0.00 72 1014.6
20260508015024 8 267 0.0 0.0 0.00 0.00 0.00 73 1014.5
20260508014520 7 266 0.0 0.0 0.00 0.00 0.00 71 1014.6
20260508014016 8 266 0.0 0.0 0.00 0.00 0.00 71 1014.2
20260508013512 7 266 0.0 0.0 0.00 0.00 0.00 64 1014.5
20260508013010 7 266 0.0 0.0 0.00 0.00 0.00 64 1014.3
20260508012507 7 266 0.0 0.0 0.00 0.00 0.00 63 1014.3
20260508012004 7 266 0.0 0.0 0.00 0.00 0.00 66 1014.3
20260508011502 8 266 0.0 0.0 0.00 0.00 0.00 62 1014.1
20260508010959 8 266 0.0 0.0 0.00 0.00 0.00 59 1014.2
20260508010456 8 266 0.0 0.0 0.00 0.00 0.00 58 1014.1
20260508005953 8 266 0.0 0.0 0.00 0.00 0.00 58 1014.1
20260508005450 8 266 0.0 0.0 0.00 0.00 0.00 57 1014.1
20260508004947 8 266 0.0 0.0 0.00 0.00 0.00 56 1014.2
20260508004443 9 266 0.0 0.0 0.00 0.00 0.00 57 1014.0
20260508003939 9 266 0.0 0.0 0.00 0.00 0.00 57 1014.1
20260508003431 10 266 0.0 0.0 0.00 0.00 0.00 57 1013.9
20260508002928 10 266 0.0 0.0 0.00 0.00 0.00 50 1013.9
20260508002425 10 266 0.0 0.0 0.00 0.00 0.00 52 1014.0
20260508001921 10 266 0.0 0.0 0.00 0.00 0.00 50 1013.9
20260508001418 10 266 0.0 0.0 0.00 0.00 0.00 53 1013.8
20260508000914 11 266 0.0 0.0 0.00 0.00 0.00 53 1013.7
20260508000412 11 266 0.0 0.0 0.00 0.00 0.00 49 1013.8
20260507235907 11 266 0.0 0.0 0.00 0.00 0.00 50 1013.7
20260507235404 11 293 0.0 0.0 0.00 0.00 0.00 47 1013.8
20260507234901 11 55 0.0 1.6 0.00 0.00 0.00 46 1013.6
20260507234359 11 303 0.0 1.6 0.00 0.00 0.00 50 1013.7
20260507233854 11 321 0.0 0.0 0.00 0.00 0.00 48 1013.7
20260507233351 12 323 3.2 3.2 0.00 0.00 0.00 43 1013.6
20260507232850 12 321 1.6 1.6 0.00 0.00 0.00 47 1013.8
20260507232346 12 326 0.0 0.0 0.00 0.00 0.00 45 1013.6
20260507231843 12 286 1.6 1.6 0.00 0.00 0.00 45 1013.8
20260507231334 12 324 0.0 1.6 0.00 0.00 0.00 46 1013.6
20260507230830 12 290 0.0 1.6 0.00 0.00 0.00 44 1013.7
20260507230328 12 279 1.6 4.8 0.00 0.00 0.00 45 1013.8
20260507225827 12 351 1.6 1.6 0.00 0.00 0.00 44 1013.6
20260507225324 12 280 4.8 4.8 0.00 0.00 0.00 44 1013.7
20260507224820 12 350 0.0 1.6 0.00 0.00 0.00 42 1013.8
20260507224317 12 263 1.6 1.6 0.00 0.00 0.00 43 1013.7
20260507223813 12 288 0.0 1.6 0.00 0.00 0.00 40 1013.7
20260507223309 13 329 1.6 3.2 0.00 0.00 0.00 43 1013.8
20260507222807 13 297 1.6 1.6 0.00 0.00 0.00 40 1013.8
20260507222306 13 282 0.0 1.6 0.00 0.00 0.00 40 1013.6
20260507221800 13 289 3.2 4.8 0.00 0.00 0.00 43 1013.6
20260507221256 13 292 0.0 1.6 0.00 0.00 0.00 41 1013.8
20260507220752 13 293 3.2 3.2 0.00 0.00 0.00 42 1014.0
20260507220251 13 251 3.2 3.2 0.00 0.00 0.00 40 1013.8
20260507215747 13 300 3.2 3.2 0.00 0.00 0.00 44 1013.6
20260507215244 13 303 3.2 3.2 0.00 0.00 0.00 43 1013.5
20260507214741 13 304 1.6 1.6 0.00 0.00 0.00 43 1013.6
20260507214239 13 296 3.2 4.8 0.00 0.00 0.00 43 1013.7
20260507213733 14 265 3.2 6.4 0.00 0.00 0.00 42 1013.6
20260507213231 14 279 3.2 6.4 0.00 0.00 0.00 40 1013.6
20260507212727 13 271 3.2 3.2 0.00 0.00 0.00 41 1013.7
20260507212224 12 295 3.2 4.8 0.00 0.00 0.00 45 1013.5
20260507211721 13 329 1.6 3.2 0.00 0.00 0.00 43 1013.5
20260507211216 13 323 4.8 6.4 0.00 0.00 0.00 44 1013.3
20260507210714 13 305 1.6 1.6 0.00 0.00 0.00 42 1013.3
20260507210211 14 219 1.6 3.2 0.00 0.00 0.00 40 1013.5
20260507205707 13 276 1.6 3.2 0.00 0.00 0.00 40 1013.3
20260507205204 13 276 3.2 3.2 0.00 0.00 0.00 41 1013.3
20260507204700 13 317 1.6 3.2 0.00 0.00 0.00 43 1013.2
20260507204158 14 310 4.8 4.8 0.00 0.00 0.00 44 1013.4
20260507203656 14 254 4.8 6.4 0.00 0.00 0.00 45 1013.3
20260507203153 13 284 1.6 4.8 0.00 0.00 0.00 49 1013.2
20260507202648 13 285 3.2 3.2 0.00 0.00 0.00 49 1013.3
20260507202144 13 354 0.0 0.0 0.00 0.00 0.00 45 1012.9
20260507201640 14 145 4.8 6.4 0.00 0.00 0.00 42 1013.3
20260507201137 13 283 3.2 4.8 0.00 0.00 0.00 46 1013.3
20260507200633 13 227 6.4 9.7 0.00 0.00 0.00 46 1013.2
20260507200129 13 233 3.2 4.8 0.00 0.00 0.00 45 1013.3
20260507195626 13 302 1.6 3.2 0.00 0.00 0.00 48 1013.4
20260507195123 13 32 3.2 4.8 0.00 0.00 0.00 47 1013.3
20260507194620 13 298 3.2 3.2 0.00 0.00 0.00 50 1013.3
20260507194115 12 259 3.2 3.2 0.00 0.00 0.00 48 1013.6
20260507193613 12 202 4.8 6.4 0.00 0.00 0.00 49 1013.5
20260507193110 12 297 3.2 4.8 0.00 0.00 0.00 52 1013.5
20260507192606 13 276 4.8 6.4 0.00 0.00 0.00 46 1013.6
20260507192103 13 313 6.4 9.7 0.00 0.00 0.00 49 1013.4
20260507191558 12 358 1.6 3.2 0.00 0.00 0.00 49 1013.6
20260507191056 13 289 4.8 6.4 0.00 0.00 0.00 48 1013.5
20260507190553 13 301 0.0 1.6 0.00 0.00 0.00 50 1013.6
20260507190051 13 291 3.2 4.8 0.00 0.00 0.00 46 1013.7
20260507185549 13 314 3.2 4.8 0.00 0.00 0.00 48 1013.7
20260507185046 13 78 1.6 3.2 0.00 0.00 0.00 47 1013.6
20260507184544 12 286 3.2 3.2 0.00 0.00 0.00 51 1013.7
20260507184042 13 299 0.0 1.6 0.00 0.00 0.00 48 1013.6
20260507183537 12 328 3.2 4.8 0.00 0.00 0.00 46 1013.5
20260507183034 13 290 0.0 1.6 0.00 0.00 0.00 45 1013.8
20260507182531 12 291 0.0 0.0 0.00 0.00 0.00 52 1013.6
20260507182027 13 309 6.4 6.4 0.00 0.00 0.00 50 1013.7
20260507181524 13 34 1.6 4.8 0.00 0.00 0.00 52 1013.7
20260507181020 13 325 0.0 1.6 0.00 0.00 0.00 46 1013.7
20260507180516 13 286 3.2 3.2 0.00 0.00 0.00 48 1013.9
20260507180014 13 254 1.6 3.2 0.00 0.00 0.00 47 1013.8
20260507175510 13 326 0.0 1.6 0.00 0.00 0.00 48 1013.8
20260507175007 13 105 4.8 4.8 0.00 0.00 0.00 47 1014.0
20260507174504 12 284 9.7 12.9 0.00 0.00 0.00 48 1014.0
20260507174002 12 225 4.8 4.8 0.00 0.00 0.00 50 1013.8
20260507173459 12 222 3.2 3.2 0.00 0.00 0.00 49 1014.0
20260507172956 13 224 6.4 9.7 0.00 0.00 0.00 46 1014.1
20260507172452 13 309 0.0 0.0 0.00 0.00 0.00 47 1014.1
20260507171949 13 296 3.2 3.2 0.00 0.00 0.00 46 1013.9
20260507171444 13 228 3.2 3.2 0.00 0.00 0.00 48 1014.0
20260507170942 13 257 3.2 4.8 0.00 0.00 0.00 48 1014.0
20260507170438 13 4 1.6 3.2 0.00 0.00 0.00 48 1014.0
20260507165935 12 207 6.4 6.4 0.00 0.00 0.00 49 1014.0
20260507165431 13 216 4.8 6.4 0.00 0.00 0.00 49 1014.0
20260507164926 12 267 3.2 4.8 0.00 0.00 0.00 51 1014.0
20260507164424 12 303 3.2 4.8 0.00 0.00 0.00 51 1014.0
20260507163921 12 296 0.0 0.0 0.00 0.00 0.00 51 1013.9
20260507163418 12 243 3.2 3.2 0.00 0.00 0.00 50 1014.1
20260507162915 12 286 1.6 1.6 0.00 0.00 0.00 52 1013.8
20260507162410 12 211 3.2 6.4 0.00 0.00 0.00 55 1014.0
20260507161908 12 284 1.6 1.6 0.00 0.00 0.00 47 1014.2
20260507161404 12 251 4.8 4.8 0.00 0.00 0.00 52 1014.0
20260507160901 12 290 3.2 3.2 0.00 0.00 0.00 47 1014.1
20260507160356 12 264 3.2 3.2 0.00 0.00 0.00 48 1013.9
20260507155853 12 303 3.2 3.2 0.00 0.00 0.00 46 1014.1
20260507155349 12 15 0.0 0.0 0.00 0.00 0.00 49 1013.9
20260507154845 12 318 6.4 9.7 0.00 0.00 0.00 49 1013.9
20260507154343 12 332 4.8 6.4 0.00 0.00 0.00 47 1013.9
20260507153840 12 242 4.8 6.4 0.00 0.00 0.00 46 1014.0
20260507153336 12 279 3.2 3.2 0.00 0.00 0.00 55 1014.1
20260507152833 12 192 3.2 4.8 0.00 0.00 0.00 49 1014.0
20260507152329 12 293 3.2 3.2 0.00 0.00 0.00 48 1014.1
20260507151825 12 289 3.2 6.4 0.00 0.00 0.00 47 1013.9
20260507151321 12 354 0.0 0.0 0.00 0.00 0.00 50 1014.0
20260507150819 12 312 1.6 3.2 0.00 0.00 0.00 54 1014.0
20260507150315 12 217 1.6 3.2 0.00 0.00 0.00 51 1014.2
20260507145811 11 297 0.0 1.6 0.00 0.00 0.00 56 1014.2
20260507145307 11 31 1.6 3.2 0.00 0.00 0.00 59 1014.3
20260507144804 11 235 4.8 4.8 0.00 0.00 0.00 60 1014.2
20260507144302 11 283 1.6 3.2 0.00 0.00 0.00 64 1014.0
20260507143758 11 260 3.2 6.4 0.00 0.00 0.00 59 1014.1
20260507143256 11 301 1.6 3.2 0.00 0.00 0.00 62 1014.1
20260507142751 11 313 0.0 0.0 0.00 0.00 0.00 66 1014.1
20260507142248 11 263 0.0 0.0 0.00 0.00 0.00 70 1014.1
20260507141744 10 277 0.0 0.0 0.00 0.00 0.00 66 1014.0
20260507141241 10 232 3.2 3.2 0.00 0.00 0.00 66 1014.2
20260507140737 10 307 0.0 1.6 0.00 0.00 0.00 64 1014.3
20260507140235 10 354 0.0 0.0 0.00 0.00 0.00 67 1014.3
20260507135733 10 275 1.6 1.6 0.00 0.00 0.00 65 1014.3
20260507135230 10 305 3.2 3.2 0.00 0.00 0.00 69 1014.4
20260507134726 10 306 1.6 1.6 0.00 0.00 0.00 69 1014.4
20260507134222 9 256 0.0 0.0 0.00 0.00 0.00 72 1014.5
20260507133718 8 306 0.0 0.0 0.00 0.00 0.00 73 1014.6
20260507133215 8 234 1.6 3.2 0.00 0.00 0.00 72 1014.6
20260507132712 8 253 0.0 1.6 0.00 0.00 0.00 76 1014.6
20260507132208 8 280 0.0 0.0 0.00 0.00 0.00 77 1014.6
20260507131706 8 307 1.6 1.6 0.00 0.00 0.00 75 1014.6
20260507131203 8 295 1.6 1.6 0.00 0.00 0.00 76 1014.5
20260507130659 8 290 0.0 1.6 0.00 0.00 0.00 77 1014.5
20260507130157 7 292 0.0 0.0 0.00 0.00 0.00 78 1014.5
20260507125656 7 196 3.2 4.8 0.00 0.00 0.00 79 1014.6
20260507125154 7 283 1.6 3.2 0.00 0.00 0.00 80 1014.5
20260507124650 7 296 0.0 0.0 0.00 0.00 0.00 78 1014.7
20260507124148 7 266 0.0 1.6 0.00 0.00 0.00 79 1014.5
20260507123646 7 238 1.6 1.6 0.00 0.00 0.00 80 1014.4
20260507123142 7 211 3.2 3.2 0.00 0.00 0.00 80 1014.5
20260507122637 7 347 3.2 4.8 0.00 0.00 0.00 83 1014.4
20260507122133 7 344 0.0 0.0 0.00 0.00 0.00 86 1014.4
20260507121630 6 332 0.0 0.0 0.00 0.00 0.00 87 1014.7
20260507121126 6 320 0.0 0.0 0.00 0.00 0.00 92 1014.3
20260507120622 5 319 0.0 0.0 0.00 0.00 0.00 98 1014.4
20260507120119 5 333 0.0 0.0 0.00 0.00 0.00 99 1014.0